OH2EWK-15 Espoo FI current weather conditions

sailwx.info

Wind from 201 at 2 knots gusting 8

Air temperature 5.0° C
Dewpoint 4.3° C

Last reported at 2020-Jan-17 18:05 UTC.
Time now 2020-Jan-17 18:41 UTC

Location: N 60°20' E 024°39'.
View on Google Maps.

See reports from other nearby stations

  
Tides and Currents Weather Stations Pressure Air Temp Water Temp Dewpoint Dewpoint Depression Visibility Wind Speed Wind Dir Waves Ship Positions
date/time (UTC)wind fromknots sea level pressurealtimeterstation pressurevisibilityair tempwater tempwave heightnotes
2020-Jan-17 18:05 201 2 gusting 8 5.0
2020-Jan-17 18:00 203 1 gusting 9 5.0
2020-Jan-17 17:55 215 1 gusting 9 5.0
2020-Jan-17 17:50 224 1 gusting 7 5.0
2020-Jan-17 17:45 217 2 gusting 10 5.0
2020-Jan-17 17:40 209 2 gusting 10 5.0
2020-Jan-17 17:35 228 2 gusting 10 5.0
2020-Jan-17 17:30 225 2 gusting 12 5.0
2020-Jan-17 17:25 195 1 gusting 12 5.0
2020-Jan-17 17:20 208 2 gusting 8 5.0
2020-Jan-17 17:15 203 3 gusting 11 5.0
2020-Jan-17 17:10 209 2 gusting 11 5.0
2020-Jan-17 17:05 231 1 gusting 8 5.0
2020-Jan-17 17:00 218 1 gusting 9 5.0
2020-Jan-17 16:55 225 1 gusting 9 5.0
2020-Jan-17 16:50 227 1 gusting 7 5.0
2020-Jan-17 16:45 215 2 gusting 9 5.0
2020-Jan-17 16:40 220 2 gusting 12 5.0
2020-Jan-17 16:35 222 1 gusting 12 5.0
2020-Jan-17 16:30 207 1 gusting 9 5.0
2020-Jan-17 16:25 222 2 gusting 11 5.6
2020-Jan-17 16:20 218 2 gusting 11 5.0
2020-Jan-17 16:15 209 1 gusting 9 5.0
2020-Jan-17 16:10 229 1 gusting 6 5.0
2020-Jan-17 16:05 227 1 gusting 7 5.0
2020-Jan-17 16:00 229 1 gusting 7 5.0
2020-Jan-17 15:55 247 1 gusting 11 5.0
2020-Jan-17 15:50 252 1 gusting 11 5.0
2020-Jan-17 15:45 219 1 gusting 8 5.0
2020-Jan-17 15:40 201 1 gusting 8 5.0
2020-Jan-17 15:35 225 1 gusting 8 5.0
2020-Jan-17 15:30 233 0 gusting 6 5.0
2020-Jan-17 15:25 5.0
2020-Jan-17 15:20 214 0 gusting 5 5.0
2020-Jan-17 15:15 200 0 gusting 5 5.0
2020-Jan-17 15:10 197 0 gusting 4 5.0
2020-Jan-17 15:05 198 0 gusting 6 4.4
2020-Jan-17 15:00 198 0 gusting 6 4.4
2020-Jan-17 14:55 199 0 gusting 9 4.4
2020-Jan-17 14:50 194 0 gusting 9 4.4
2020-Jan-17 14:45 4.4
2020-Jan-17 14:40 4.4
2020-Jan-17 14:35 4.4
2020-Jan-17 14:30 4.4
2020-Jan-17 14:25 4.4
2020-Jan-17 14:20 4.4
2020-Jan-17 14:15 191 0 gusting 6 4.4
2020-Jan-17 14:10 202 1 gusting 6 4.4
2020-Jan-17 14:05 211 0 gusting 6 4.4
2020-Jan-17 14:00 4.4
2020-Jan-17 13:55 4.4
2020-Jan-17 13:50 186 0 gusting 5 5.0
2020-Jan-17 13:45 201 0 gusting 5 5.0
2020-Jan-17 13:40 221 0 gusting 6 5.0
2020-Jan-17 13:35 217 0 gusting 8 5.0
2020-Jan-17 13:30 222 1 gusting 8 5.0
2020-Jan-17 13:25 225 2 gusting 7 5.0
2020-Jan-17 13:20 223 1 gusting 7 5.0
2020-Jan-17 13:15 234 0 gusting 6 5.0
2020-Jan-17 13:10 232 0 gusting 6 5.0
2020-Jan-17 13:05 233 1 gusting 7 5.0
2020-Jan-17 13:00 232 1 gusting 7 5.0
2020-Jan-17 12:55 219 1 gusting 6 5.0
2020-Jan-17 12:50 224 1 gusting 6 5.0
2020-Jan-17 12:45 220 1 gusting 6 5.0
2020-Jan-17 12:40 230 1 gusting 10 5.0
2020-Jan-17 12:35 222 2 gusting 11 5.6
2020-Jan-17 12:30 214 3 gusting 11 5.6
2020-Jan-17 12:25 218 2 gusting 15 5.6
2020-Jan-17 12:20 216 1 gusting 15 5.6
2020-Jan-17 12:15 217 0 gusting 7 5.6
2020-Jan-17 12:10 223 1 gusting 7 5.6
2020-Jan-17 12:05 224 1 gusting 8 5.6
2020-Jan-17 12:00 225 1 gusting 9 5.0
2020-Jan-17 11:55 225 1 gusting 9 5.0
2020-Jan-17 11:50 211 1 gusting 8 5.0
2020-Jan-17 11:45 212 2 gusting 7 5.0
2020-Jan-17 11:40 223 1 gusting 10 5.0
2020-Jan-17 11:35 225 1 gusting 10 5.0
2020-Jan-17 11:30 219 0 gusting 6 5.0
2020-Jan-17 11:25 203 1 gusting 11 5.0
2020-Jan-17 11:20 205 1 gusting 11 5.0
2020-Jan-17 11:15 222 1 gusting 11 5.0
2020-Jan-17 11:10 238 1 gusting 7 5.0
2020-Jan-17 11:05 226 1 gusting 7 5.0
2020-Jan-17 11:00 214 2 gusting 8 4.4
2020-Jan-17 10:55 217 1 gusting 8 4.4
2020-Jan-17 10:50 4.4
2020-Jan-17 10:45 238 1 gusting 8 4.4
2020-Jan-17 10:40 229 2 gusting 8 4.4
2020-Jan-17 10:35 222 1 gusting 9 4.4
2020-Jan-17 10:30 230 2 gusting 9 4.4
2020-Jan-17 10:25 226 2 gusting 8 4.4
2020-Jan-17 10:20 242 1 gusting 9 4.4
2020-Jan-17 09:45 232 1 gusting 9 4.4
2020-Jan-17 09:40 217 1 gusting 9 4.4
2020-Jan-17 09:35 225 1 gusting 7 4.4
2020-Jan-17 09:30 233 1 gusting 6 4.4
2020-Jan-17 09:25 236 1 gusting 6 3.9
2020-Jan-17 09:20 240 1 gusting 6 3.9
2020-Jan-17 09:15 242 1 gusting 7 3.9
2020-Jan-17 09:10 235 0 gusting 7 3.9
2020-Jan-17 09:05 235 1 gusting 8 3.9
2020-Jan-17 09:00 238 1 gusting 8 3.9
2020-Jan-17 08:55 229 0 gusting 6 3.9
2020-Jan-17 08:50 221 1 gusting 7 3.9
2020-Jan-17 08:45 225 2 gusting 7 3.9
2020-Jan-17 08:40 234 1 gusting 7 3.9
2020-Jan-17 08:35 238 1 gusting 6 3.9
2020-Jan-17 08:30 227 0 gusting 6 3.9
2020-Jan-17 08:25 233 0 gusting 6 3.3
2020-Jan-17 08:20 225 0 gusting 7 3.3
2020-Jan-17 08:15 220 0 gusting 7 3.3
2020-Jan-17 08:10 239 0 gusting 6 3.3
2020-Jan-17 08:05 230 1 gusting 6 3.3
2020-Jan-17 08:00 226 1 gusting 6 3.3
2020-Jan-17 07:55 229 0 gusting 6 3.3
2020-Jan-17 07:50 221 0 gusting 6 3.3
2020-Jan-17 07:45 221 0 gusting 6 3.3
2020-Jan-17 07:40 222 0 gusting 6 3.3
2020-Jan-17 07:35 227 1 gusting 5 3.3
2020-Jan-17 07:30 229 0 gusting 5 3.3
2020-Jan-17 07:25 2.8
2020-Jan-17 07:20 2.8
2020-Jan-17 07:15 2.8
2020-Jan-17 07:10 2.8
2020-Jan-17 07:05 2.8
2020-Jan-17 07:00 2.8
2020-Jan-17 06:55 2.8
2020-Jan-17 06:50 2.8
2020-Jan-17 06:45 2.8
2020-Jan-17 06:35 222 0 gusting 4 2.8
2020-Jan-17 06:30 2.8
2020-Jan-17 06:25 2.8
2020-Jan-17 06:20 2.8
2020-Jan-17 06:15 2.8
2020-Jan-17 06:10 2.8
2020-Jan-17 06:05 2.8
2020-Jan-17 06:00 2.8
2020-Jan-17 05:55 2.8
2020-Jan-17 05:50 2.8
2020-Jan-17 05:45 2.2
2020-Jan-17 05:40 2.2
2020-Jan-17 05:35 2.2
2020-Jan-17 05:30 2.2
2020-Jan-17 05:25 2.2
2020-Jan-17 05:20 2.2
2020-Jan-17 05:15 2.2
2020-Jan-17 05:10 2.2
2020-Jan-17 05:05 2.2
2020-Jan-17 05:00 2.2
2020-Jan-17 04:55 2.2
2020-Jan-17 04:50 2.2
2020-Jan-17 04:45 2.2
2020-Jan-17 04:40 2.8
2020-Jan-17 04:35 2.8
2020-Jan-17 04:30 2.8
2020-Jan-17 04:25 2.8
2020-Jan-17 04:20 2.8
2020-Jan-17 04:15 2.8
2020-Jan-17 04:10 2.8
2020-Jan-17 04:05 2.8
2020-Jan-17 04:00 2.8
2020-Jan-17 03:55 3.3
2020-Jan-17 03:50 3.3
2020-Jan-17 03:45 3.3
2020-Jan-17 03:40 3.3
2020-Jan-17 03:35 3.3
2020-Jan-17 03:30 261 0 gusting 6 2.8
2020-Jan-17 03:25 256 0 gusting 6 2.8
2020-Jan-17 03:20 233 0 gusting 4 2.8
2020-Jan-17 03:15 2.8
2020-Jan-17 03:10 2.8
2020-Jan-17 03:05 2.2
2020-Jan-17 03:00 2.2
2020-Jan-17 02:55 2.2
2020-Jan-17 02:50 1.7
2020-Jan-17 02:45 1.7
2020-Jan-17 02:40 1.7
2020-Jan-17 02:35 1.7
2020-Jan-17 02:30 1.7
2020-Jan-17 02:25 1.7
2020-Jan-17 02:20 1.1
2020-Jan-17 02:15 1.1
2020-Jan-17 02:10 1.7
2020-Jan-17 02:05 1.7
2020-Jan-17 02:00 1.7
2020-Jan-17 01:55 1.7
2020-Jan-17 01:50 1.7
2020-Jan-17 01:45 1.7
2020-Jan-17 01:40 1.7
2020-Jan-17 01:35 1.7
2020-Jan-17 01:30 1.7
2020-Jan-17 01:25 1.7
2020-Jan-17 01:20 1.7
2020-Jan-17 01:15 1.7
2020-Jan-17 01:10 1.7
2020-Jan-17 01:05 1.7
2020-Jan-17 01:00 1.7
2020-Jan-17 00:55 1.7
2020-Jan-17 00:50 1.7
2020-Jan-17 00:45 1.7
2020-Jan-17 00:40 1.7
2020-Jan-17 00:35 2.2
2020-Jan-17 00:30 2.2
2020-Jan-17 00:25 1.7
2020-Jan-17 00:20 1.7
2020-Jan-17 00:15 1.7
2020-Jan-17 00:10 1.7
2020-Jan-17 00:05 1.7
2020-Jan-17 00:00 2.2
2020-Jan-16 23:55 2.2
2020-Jan-16 23:50 2.2
2020-Jan-16 23:45 2.2
2020-Jan-16 23:40 2.2
2020-Jan-16 23:35 2.2
2020-Jan-16 23:30 2.2
2020-Jan-16 23:25 2.8
2020-Jan-16 23:20 2.8
2020-Jan-16 23:15 2.8
2020-Jan-16 23:10 2.8
2020-Jan-16 23:05 2.8
2020-Jan-16 23:00 2.8
2020-Jan-16 22:55 2.8
2020-Jan-16 22:50 2.8
2020-Jan-16 22:45 3.3
2020-Jan-16 22:40 3.3
2020-Jan-16 22:35 3.3
2020-Jan-16 22:30 3.3
2020-Jan-16 22:25 3.3
2020-Jan-16 22:20 3.3
2020-Jan-16 22:15 3.3
2020-Jan-16 22:10 3.3
2020-Jan-16 22:05 3.3
2020-Jan-16 22:00 3.3
2020-Jan-16 21:55 3.9
2020-Jan-16 21:50 3.9
2020-Jan-16 21:45 3.9
2020-Jan-16 21:40 3.9
2020-Jan-16 21:35 251 0 gusting 5 3.9
2020-Jan-16 21:30 250 1 gusting 6 4.4
2020-Jan-16 21:25 252 0 gusting 6 3.9
2020-Jan-16 21:20 3.9
2020-Jan-16 21:15 3.9
2020-Jan-16 21:10 259 0 gusting 4 3.9
2020-Jan-16 21:05 3.9
2020-Jan-16 21:00 3.9
2020-Jan-16 20:55 4.4
2020-Jan-16 20:50 4.4
2020-Jan-16 20:45 4.4
2020-Jan-16 20:40 231 0 gusting 4 4.4
2020-Jan-16 20:35 241 0 gusting 6 4.4
2020-Jan-16 20:30 243 0 gusting 6 4.4
2020-Jan-16 20:25 257 0 gusting 6 4.4
2020-Jan-16 20:20 4.4
2020-Jan-16 20:15 251 0 gusting 6 4.4
2020-Jan-16 20:10 255 0 gusting 6 4.4
2020-Jan-16 20:05 258 0 gusting 6 4.4
2020-Jan-16 20:00 258 1 gusting 6 4.4
2020-Jan-16 19:55 262 1 gusting 6 4.4
2020-Jan-16 19:50 256 0 gusting 6 4.4
2020-Jan-16 19:45 3.9
2020-Jan-16 19:40 3.9
2020-Jan-16 19:35 4.4
2020-Jan-16 19:30 4.4
2020-Jan-16 19:25 4.4
2020-Jan-16 19:20 4.4
2020-Jan-16 19:15 4.4
2020-Jan-16 19:10 4.4
2020-Jan-16 19:05 4.4
2020-Jan-16 19:00 4.4
2020-Jan-16 18:55 204 0 gusting 4 5.0
2020-Jan-16 18:50 216 0 gusting 7 5.0
2020-Jan-16 18:45 227 0 gusting 7 5.0
2020-Jan-16 18:40 242 0 gusting 2 5.0
2020-Jan-16 18:35 230 0 gusting 4 5.0
2020-Jan-16 18:30 229 0 gusting 6 5.0
2020-Jan-16 18:25 237 1 gusting 7 5.0
2020-Jan-16 18:20 235 1 gusting 7 5.0
2020-Jan-16 18:15 234 0 gusting 6 5.6
2020-Jan-16 18:10 231 1 gusting 6 5.6
2020-Jan-16 18:05 231 0 gusting 6 5.6
2020-Jan-16 18:00 254 1 gusting 9 5.6
2020-Jan-16 17:55 247 1 gusting 9 5.0
2020-Jan-16 17:50 235 1 gusting 6 5.0
2020-Jan-16 17:45 238 1 gusting 8 5.0
2020-Jan-16 17:40 244 1 gusting 8 5.0
2020-Jan-16 17:35 244 0 gusting 4 5.0
2020-Jan-16 17:30 236 2 gusting 8 5.0
2020-Jan-16 17:25 243 1 gusting 8 5.0
2020-Jan-16 17:20 251 0 gusting 8 4.4
2020-Jan-16 17:15 247 0 gusting 5 4.4
2020-Jan-16 17:10 4.4
2020-Jan-16 17:05 4.4
2020-Jan-16 17:00 4.4
2020-Jan-16 16:55 4.4
2020-Jan-16 16:50 4.4
2020-Jan-16 16:45 218 0 gusting 5 5.0
2020-Jan-16 16:40 213 0 gusting 4 5.0
2020-Jan-16 16:35 5.0
2020-Jan-16 16:30 5.0
2020-Jan-16 16:25 5.0
2020-Jan-16 16:20 5.0
2020-Jan-16 16:15 232 0 gusting 5 5.0
2020-Jan-16 16:10 223 0 gusting 5 5.0
2020-Jan-16 16:05 230 0 gusting 5 5.0
2020-Jan-16 16:00 5.0
2020-Jan-16 15:55 5.0
2020-Jan-16 15:50 243 0 gusting 5 5.0
2020-Jan-16 15:45 238 0 gusting 5 5.0
2020-Jan-16 15:40 234 0 gusting 5 5.0
2020-Jan-16 15:35 236 0 gusting 5 5.0
2020-Jan-16 15:30 5.0
2020-Jan-16 15:25 5.0
2020-Jan-16 15:20 5.0
2020-Jan-16 15:15 229 0 gusting 6 5.6
2020-Jan-16 15:10 244 0 gusting 6 5.6
2020-Jan-16 15:05 244 0 gusting 5 5.6
2020-Jan-16 15:00 5.6
2020-Jan-16 14:55 5.6
2020-Jan-16 14:50 5.6
2020-Jan-16 14:45 238 0 gusting 5 5.6
2020-Jan-16 14:40 241 1 gusting 6 5.6
2020-Jan-16 14:35 236 1 gusting 6 5.6
2020-Jan-16 14:30 234 1 gusting 8 5.6
2020-Jan-16 14:25 222 0 gusting 8 5.6
2020-Jan-16 14:20 231 0 gusting 5 5.6
2020-Jan-16 14:15 227 0 gusting 5 5.6
2020-Jan-16 14:10 252 0 gusting 6 5.6
2020-Jan-16 14:05 249 1 gusting 6 5.6
2020-Jan-16 14:00 232 1 gusting 7 5.6
2020-Jan-16 13:55 238 1 gusting 7 5.6
2020-Jan-16 13:50 247 2 gusting 6 5.6
2020-Jan-16 13:45 249 1 gusting 6 5.6
2020-Jan-16 13:40 245 1 gusting 6 5.6
2020-Jan-16 13:35 243 1 gusting 11 5.6
2020-Jan-16 13:30 234 0 gusting 11 5.6
2020-Jan-16 13:25 224 0 gusting 6 5.6
2020-Jan-16 13:20 230 0 gusting 5 5.6
2020-Jan-16 13:15 235 0 gusting 5 5.6
2020-Jan-16 13:10 241 0 gusting 7 5.6
2020-Jan-16 13:05 247 1 gusting 7 5.6
2020-Jan-16 13:00 237 0 gusting 6 5.6
2020-Jan-16 12:55 232 0 gusting 5 5.6
2020-Jan-16 12:50 243 0 gusting 6 5.6
2020-Jan-16 12:45 253 0 gusting 6 5.6
2020-Jan-16 12:40 248 0 gusting 6 5.6
2020-Jan-16 12:35 240 0 gusting 3 5.6
2020-Jan-16 12:30 239 0 gusting 5 5.6
2020-Jan-16 12:25 240 0 gusting 5 5.6
2020-Jan-16 12:20 240 0 gusting 5 5.6
2020-Jan-16 12:15 230 0 gusting 5 5.6
2020-Jan-16 12:10 5.6
2020-Jan-16 12:05 203 0 gusting 3 5.6
2020-Jan-16 12:00 233 0 gusting 6 5.6
2020-Jan-16 11:55 244 0 gusting 6 5.6
2020-Jan-16 11:50 238 0 gusting 5 5.6
2020-Jan-16 11:45 230 0 gusting 5 5.6
2020-Jan-16 11:40 222 0 gusting 4 5.0
2020-Jan-16 11:35 233 0 gusting 4 5.0
2020-Jan-16 11:30 230 0 gusting 8 5.0
2020-Jan-16 11:25 226 0 gusting 8 5.0
2020-Jan-16 11:20 221 0 gusting 6 5.0
2020-Jan-16 11:15 215 0 gusting 5 5.0
2020-Jan-16 11:10 221 0 gusting 5 5.0
2020-Jan-16 11:05 221 0 gusting 6 5.0
2020-Jan-16 11:00 217 0 gusting 8 5.0
2020-Jan-16 10:55 215 0 gusting 8 5.0
2020-Jan-16 10:50 219 0 gusting 5 5.0
2020-Jan-16 10:45 222 0 gusting 5 5.0
2020-Jan-16 10:40 235 0 gusting 6 5.0
2020-Jan-16 10:35 241 0 gusting 6 5.0
2020-Jan-16 10:30 232 0 gusting 6 5.0
2020-Jan-16 10:25 234 0 gusting 6 5.0
2020-Jan-16 10:20 239 0 gusting 5 5.0
2020-Jan-16 10:15 5.0
2020-Jan-16 10:10 243 0 gusting 6 5.0
2020-Jan-16 10:05 240 0 gusting 6 5.0
2020-Jan-16 10:00 224 0 gusting 8 5.0
2020-Jan-16 09:55 228 1 gusting 8 5.0
2020-Jan-16 09:50 240 1 gusting 11 5.0
2020-Jan-16 09:45 231 1 gusting 11 5.0
2020-Jan-16 09:40 231 0 gusting 6 5.0
2020-Jan-16 09:35 229 1 gusting 9 5.0
2020-Jan-16 09:30 231 1 gusting 9 5.0
2020-Jan-16 09:25 228 1 gusting 7 5.0
2020-Jan-16 09:20 236 4 gusting 10 5.6
2020-Jan-16 09:15 243 4 gusting 13 5.6
2020-Jan-16 09:10 240 3 gusting 13 5.6
2020-Jan-16 09:05 238 3 gusting 8 5.6
2020-Jan-16 09:00 243 3 gusting 9 5.6
2020-Jan-16 08:55 252 3 gusting 12 5.6
2020-Jan-16 08:50 258 4 gusting 12 5.6
2020-Jan-16 08:45 255 4 gusting 11 5.6
2020-Jan-16 08:40 252 4 gusting 11 5.6
2020-Jan-16 08:35 251 4 gusting 13 5.6
2020-Jan-16 08:30 253 4 gusting 13 5.6
2020-Jan-16 08:25 252 5 gusting 16 5.6
2020-Jan-16 08:20 251 4 gusting 16 5.6
2020-Jan-16 08:15 248 4 gusting 11 5.6
2020-Jan-16 08:10 249 5 gusting 13 5.6
2020-Jan-16 08:05 259 4 gusting 19 5.0
2020-Jan-16 08:00 266 2 gusting 19 5.0
2020-Jan-16 07:55 250 3 gusting 9 5.0
2020-Jan-16 07:50 245 3 gusting 10 5.0
2020-Jan-16 07:45 249 2 gusting 10 5.0
2020-Jan-16 07:40 248 2 gusting 11 5.0
2020-Jan-16 07:35 248 2 gusting 11 5.0
2020-Jan-16 07:30 244 1 gusting 8 5.0
2020-Jan-16 07:25 235 0 gusting 6 4.4
2020-Jan-16 07:20 229 0 gusting 5 4.4
2020-Jan-16 07:15 216 0 gusting 7 4.4
2020-Jan-16 07:10 221 0 gusting 7 4.4
2020-Jan-16 07:05 228 0 gusting 6 4.4
2020-Jan-16 07:00 227 0 gusting 6 4.4
2020-Jan-16 06:55 238 0 gusting 6 4.4
2020-Jan-16 06:50 250 1 gusting 10 4.4
2020-Jan-16 06:45 254 1 gusting 10 4.4
2020-Jan-16 06:40 250 1 gusting 9 4.4
2020-Jan-16 06:35 240 2 gusting 9 4.4
2020-Jan-16 06:30 233 1 gusting 7 4.4
2020-Jan-16 06:25 234 1 gusting 9 4.4
2020-Jan-16 06:20 235 2 gusting 9 4.4
2020-Jan-16 06:15 235 2 gusting 9 4.4
2020-Jan-16 06:10 238 1 gusting 8 4.4
2020-Jan-16 06:05 246 1 gusting 8 4.4
2020-Jan-16 06:00 240 1 gusting 6 4.4
2020-Jan-16 05:55 254 1 gusting 9 4.4
2020-Jan-16 05:50 252 2 gusting 9 4.4
2020-Jan-16 05:45 236 1 gusting 6 4.4
2020-Jan-16 05:40 240 1 gusting 8 4.4
2020-Jan-16 05:35 234 0 gusting 8 3.9
2020-Jan-16 05:30 230 1 gusting 9 4.4
2020-Jan-16 05:25 231 1 gusting 9 4.4
2020-Jan-16 05:20 238 1 gusting 6 4.4
2020-Jan-16 05:15 228 2 gusting 11 4.4
2020-Jan-16 05:10 219 1 gusting 11 4.4
2020-Jan-16 05:05 220 0 gusting 7 4.4
2020-Jan-16 05:00 219 0 gusting 11 4.4
2020-Jan-16 04:55 223 1 gusting 11 4.4
2020-Jan-16 04:50 230 2 gusting 8 4.4
2020-Jan-16 04:45 238 1 gusting 7 4.4
2020-Jan-16 04:40 245 0 gusting 6 4.4
2020-Jan-16 04:35 236 1 gusting 10 4.4
2020-Jan-16 04:30 234 1 gusting 10 4.4
2020-Jan-16 04:25 236 2 gusting 7 4.4
2020-Jan-16 04:20 232 1 gusting 7 4.4
2020-Jan-16 04:15 234 0 gusting 8 4.4
2020-Jan-16 04:10 236 0 gusting 8 4.4
2020-Jan-16 04:05 237 1 gusting 10 4.4
2020-Jan-16 04:00 234 1 gusting 10 4.4
2020-Jan-16 03:55 232 1 gusting 8 4.4
2020-Jan-16 03:50 229 1 gusting 8 4.4
2020-Jan-16 03:45 224 1 gusting 6 4.4
2020-Jan-16 03:40 233 1 gusting 6 5.0
2020-Jan-16 03:35 237 1 gusting 8 5.0
2020-Jan-16 03:30 233 1 gusting 10 5.0
2020-Jan-16 03:25 225 0 gusting 10 5.0
2020-Jan-16 03:20 222 0 gusting 4 5.0
2020-Jan-16 03:15 216 0 gusting 8 5.0
2020-Jan-16 03:10 219 0 gusting 8 5.0
2020-Jan-16 03:05 219 0 gusting 6 5.0
2020-Jan-16 03:00 227 1 gusting 8 5.0
2020-Jan-16 02:55 235 1 gusting 9 5.0
2020-Jan-16 02:50 232 0 gusting 9 5.0
2020-Jan-16 02:45 225 0 gusting 6 5.6
2020-Jan-16 02:40 218 0 gusting 6 5.6
2020-Jan-16 02:35 226 0 gusting 6 5.6
2020-Jan-16 02:30 233 0 gusting 9 5.6
2020-Jan-16 02:25 239 0 gusting 9 5.6
2020-Jan-16 02:20 243 0 gusting 4 5.6
2020-Jan-16 02:15 244 0 gusting 4 5.6
2020-Jan-16 02:10 241 0 gusting 5 5.6
2020-Jan-16 02:05 235 0 gusting 6 5.6
2020-Jan-16 02:00 230 0 gusting 6 5.6
2020-Jan-16 01:55 5.6
2020-Jan-16 01:50 238 0 gusting 6 5.6
2020-Jan-16 01:45 248 0 gusting 5 5.0
2020-Jan-16 01:40 5.0
2020-Jan-16 01:35 5.0
2020-Jan-16 01:30 5.0
2020-Jan-16 01:25 5.0
2020-Jan-16 01:20 5.0
2020-Jan-16 01:15 5.0
2020-Jan-16 01:10 5.0
2020-Jan-16 01:05 5.6
2020-Jan-16 01:00 5.6
2020-Jan-16 00:55 5.6
2020-Jan-16 00:50 5.6
2020-Jan-16 00:45 5.6
2020-Jan-16 00:40 5.6
2020-Jan-16 00:35 5.6
2020-Jan-16 00:30 238 0 gusting 6 5.6
2020-Jan-16 00:25 229 0 gusting 6 5.6
2020-Jan-16 00:20 218 0 gusting 6 5.6
2020-Jan-16 00:15 219 0 gusting 6 5.6
2020-Jan-16 00:10 215 0 gusting 6 5.6
2020-Jan-16 00:05 210 0 gusting 6 5.6
2020-Jan-16 00:00 213 0 gusting 6 5.6
2020-Jan-15 23:55 221 0 gusting 6 5.6
2020-Jan-15 23:50 5.6
2020-Jan-15 23:45 5.6
2020-Jan-15 23:40 5.6
2020-Jan-15 23:35 193 0 gusting 5 5.6
2020-Jan-15 23:30 192 0 gusting 5 5.6
2020-Jan-15 23:25 5.0
2020-Jan-15 23:20 5.0
2020-Jan-15 23:15 5.0
2020-Jan-15 23:10 5.0
2020-Jan-15 23:05 5.0
2020-Jan-15 23:00 5.0
2020-Jan-15 22:55 5.0
2020-Jan-15 22:50 5.0
2020-Jan-15 22:45 5.0
2020-Jan-15 22:40 5.0
2020-Jan-15 22:35 5.0
2020-Jan-15 22:30 5.0
2020-Jan-15 22:25 5.0
2020-Jan-15 22:20 5.0
2020-Jan-15 22:15 5.0
2020-Jan-15 22:10 5.0
2020-Jan-15 22:05 5.0
2020-Jan-15 22:00 5.0
2020-Jan-15 21:55 5.0
2020-Jan-15 21:50 5.0
2020-Jan-15 21:45 5.0
2020-Jan-15 21:40 5.0
2020-Jan-15 21:35 5.6
2020-Jan-15 21:30 5.6
2020-Jan-15 21:25 5.6
2020-Jan-15 21:20 5.6
2020-Jan-15 21:15 5.6
2020-Jan-15 21:10 237 0 gusting 4 5.6
2020-Jan-15 21:05 5.6
2020-Jan-15 21:00 5.6
2020-Jan-15 20:55 257 0 gusting 7 5.6
2020-Jan-15 20:50 253 0 gusting 7 5.6
2020-Jan-15 20:45 225 0 gusting 6 5.6
2020-Jan-15 20:40 235 1 gusting 7 5.6
2020-Jan-15 20:35 247 2 gusting 7 6.1
2020-Jan-15 20:30 248 2 gusting 6 6.1
2020-Jan-15 20:25 253 2 gusting 9 6.1
2020-Jan-15 20:20 250 2 gusting 9 6.1
2020-Jan-15 20:15 244 2 gusting 7 6.1
2020-Jan-15 20:10 243 3 gusting 9 6.1
2020-Jan-15 20:05 241 1 gusting 9 6.1
2020-Jan-15 20:00 236 0 gusting 6 6.1
2020-Jan-15 19:55 222 1 gusting 6 6.1
2020-Jan-15 19:50 230 2 gusting 7 6.1
2020-Jan-15 19:45 236 2 gusting 10 6.1
2020-Jan-15 19:40 229 2 gusting 10 6.1
2020-Jan-15 19:35 222 2 gusting 6 6.1
2020-Jan-15 19:30 227 1 gusting 5 6.1
2020-Jan-15 19:25 226 2 gusting 7 6.1
2020-Jan-15 19:20 242 3 gusting 11 6.7
2020-Jan-15 19:15 257 4 gusting 11 6.7
2020-Jan-15 19:10 263 3 gusting 11 6.7
2020-Jan-15 19:05 259 4 gusting 17 6.7
2020-Jan-15 19:00 253 5 gusting 17 6.7
2020-Jan-15 18:55 244 4 gusting 11 6.7
2020-Jan-15 18:50 249 4 gusting 11 6.7
2020-Jan-15 18:45 251 4 gusting 10 6.7
2020-Jan-15 18:40 243 4 gusting 13 6.7
2020-Jan-15 18:35 244 5 gusting 13 6.7
2020-Jan-15 18:30 251 5 gusting 13 6.7
2020-Jan-15 18:25 252 4 gusting 13 6.7
2020-Jan-15 18:20 245 4 gusting 12 6.7
2020-Jan-15 18:15 233 4 gusting 13 6.7
2020-Jan-15 18:10 235 4 gusting 13 6.7
2020-Jan-15 18:05 248 4 gusting 18 6.7
2020-Jan-15 18:00 245 3 gusting 18 6.7